Content
SEND FEEDBACK

Daily
Averages
Monthly
Summary
United States of America

INARAJAN, GUAM


Home > North America > United States > Guam
Elevation: 280 feet     Latitude: 13 18N     Longitude: 144 44E

WEATHER
 
SELECT A DAY
Number of Records: 351,895;   Date Range: 1/1/95 - 10/24/14
 
SHARE

PRINT THIS DATA

[ ← Previous Day ]
WEATHER ALMANAC - NOVEMBER 12, 2013
[ Next Day → ]
[ °C ]   °F
Weather ElementAverageHighLow
Temperature81.1 °F84.7 °F (12:58 pm)77.4 °F (3:58 am)
Dewpoint75.3 °F77 °F (12:08 pm)74.1 °F (6:58 pm)
Humidity82.8 %94 % (3:58 am)74 % (12:03 pm)
Barometer29.82 in29.87 in (9:03 pm)29.78 in (3:58 am)
Wind Speed9.4 mph12.7 mph (1:58 pm)
Wind Gust19.6 mph (4:25 pm)
Weather ElementAverage
Visibility10 mi
Wind DirectionENE (58.2 °)

Weather ElementTotal
Precipitation---
Cooling Degree Days16.1 (Base 65)
Growing Degree Days31.1 (Base 50)
Averaged from 33 records on November 12, 2013
WEATHER CONDITIONS BREAKOUT
WIND DIRECTION BREAKOUT
WEATHER BY HOUR - NOVEMBER 12, 2013
[ °C ]   °F
Local TimeTemperatureDewpointHumidityBarometerVisibilityWind DirectionWind SpeedGust SpeedPrecipitationEventsConditions
1:58 AM77.9 °F74.7 °F90 %29.81 in10.0 miNE (50°)8.1 mphClear
2:58 AM78.3 °F74.5 °F88 %29.79 in10.0 miNE (50°)10.4 mphClear
3:58 AM77.4 °F75.4 °F94 %29.78 in10.0 miNE (50°)6.9 mphClear
4:58 AM77.5 °F74.5 °F90 %29.78 in10.0 miNE (50°)8.1 mphClear
5:58 AM77.7 °F74.7 °F90 %29.81 in10.0 miENE (60°)10.4 mphClear
6:58 AM78.3 °F74.3 °F88 %29.83 in10.0 miNE (50°)8.1 mphClear
7:58 AM81.1 °F74.8 °F81 %29.84 in10.0 miENE (60°)8.1 mphClear
8:58 AM82.4 °F75.6 °F80 %29.86 in10.0 miENE (70°)10.4 mphPartly Cloudy
9:58 AM83.7 °F75.0 °F75 %29.86 in10.0 miENE (70°)9.2 mphPartly Cloudy
10:58 AM83.5 °F75.7 °F77 %29.84 in10.0 miEast (80°)10.4 mphPartly Cloudy
11:58 AM84.2 °F76.1 °F77 %29.82 in10.0 miNE (50°)10.4 mphScattered Clouds
12:03 PM84.2 °F75.2 °F74 %29.85 in10.0 miNE (50°)9.2 mphMostly Cloudy
12:08 PM84.2 °F77.0 °F79 %29.85 in10.0 miENE (70°)10.4 mphMostly Cloudy
12:13 PM84.2 °F77.0 °F79 %29.85 in10.0 miNE (40°)11.5 mphMostly Cloudy
12:38 PM84.2 °F75.2 °F74 %29.84 in10.0 miENE (70°)9.2 mphScattered Clouds
12:48 PM84.2 °F75.2 °F74 %29.84 in10.0 miENE (60°)8.1 mphMostly Cloudy
12:58 PM84.7 °F75.9 °F75 %29.81 in10.0 miNE (50°)10.4 mphMostly Cloudy
1:03 PM84.2 °F75.2 °F74 %29.83 in10.0 miEast (80°)10.4 mphScattered Clouds
1:58 PM84.0 °F76.1 °F77 %29.78 in10.0 miENE (70°)12.7 mphScattered Clouds
2:49 PM84.2 °F75.2 °F74 %29.81 in10.0 miNNE (30°)11.5 mphScattered Clouds
2:58 PM83.1 °F75.2 °F77 %29.78 in10.0 miNE (40°)11.5 mphScattered Clouds
3:58 PM82.9 °F76.1 °F80 %29.79 in10.0 miNE (40°)10.4 mphPartly Cloudy
4:25 PM82.4 °F77.0 °F84 %29.82 in10.0 miNE (40°)12.7 mph19.6 mphRainLight Rain
4:42 PM80.6 °F77.0 °F89 %29.82 in10.0 miNE (40°)6.9 mphScattered Clouds
4:58 PM79.9 °F75.7 °F87 %29.79 in10.0 miENE (70°)9.2 mph0.00 inPartly Cloudy
5:58 PM79.3 °F75.0 °F87 %29.81 in10.0 miENE (60°)8.1 mphPartly Cloudy
6:58 PM77.9 °F74.1 °F88 %29.82 in10.0 miENE (70°)5.8 mphPartly Cloudy
7:58 PM78.8 °F74.3 °F86 %29.83 in10.0 miENE (60°)10.4 mphClear
8:58 PM78.8 °F75.0 °F88 %29.84 in10.0 miENE (60°)8.1 mphMostly Cloudy
9:03 PM78.8 °F75.2 °F89 %29.87 in10.0 miENE (70°)6.9 mphScattered Clouds
9:58 PM78.3 °F74.3 °F88 %29.84 in10.0 miENE (70°)9.2 mphClear
10:58 PM78.6 °F75.2 °F89 %29.82 in10.0 miENE (70°)6.9 mphScattered Clouds
11:58 PM77.9 °F74.3 °F89 %29.82 in10.0 miENE (70°)10.4 mphPartly Cloudy
Hourly data recorded from PGUA, located miles away from Inarajan, Guam







STORIES FROM OUR PARTNERS